Terug naar catalogus

COSMOS 2251 DEB

ActiefLEO
NORAD 35669·DEBRIS·🇷🇺 Russia

Gelanceerd Jun 16, 1993 vanaf Plesetsk Cosmodrome

Loading…

Volgende Passages (komende 24 uur)

TLE

VerouderendSource: Space-Track

Epoch: Sep 11, 2026, 04:27 UTC

1 35669U 93036APL 26254.18575250  .00000727  00000-0  64116-3 0  9999
2 35669  73.8577  74.7048 0385318 139.4620 223.5882 13.57643479644868

Volg COSMOS 2251 DEB in realtime met AllMySat

Download on the App Store